Flag Weather past 2 weeks in Douala, Cameroon

Now
84 °F

Partly sunny.


Feels Like: 94 °F
Forecast: 74 / 86 °F
Wind: No wind

Location: Douala Obs.

Current Time: Nov 26, 2014 at 12:03:46 PM

Latest Report: Nov 26, 2014 at 11:00 AM


Visibility: N/A

Pressure: 29.89 "Hg

Humidity: 79%

Dew point: 77 °F

Location of DoualaLocation

Historic Weather in Douala — Graph

°F

Douala temperature yesterday

Maximum temperature yesterday: 84 °F (at 11:00 AM)
Minimum temperature yesterday: 77 °F (at 4:00 AM)
Average temperature yesterday: 79 °F

Past Weeks' High & Low Weather Summary

 TemperatureHumidityPressure
High91 °F (Nov 21, 2:00 PM)100% (Nov 12, 5:00 AM)29.95 "Hg (Nov 12, 5:00 AM)
Low72 °F (Nov 18, 3:00 AM)52% (Nov 18, 2:00 PM)29.74 "Hg (Nov 15, 3:00 PM)
Average80 °F88%29.85 "Hg
* Reported Nov 11 11:00 AM — Nov 26 11:00 AM, Douala, Weather by CustomWeather, © 2014

Note: Actual official high and low records may vary slightly from our data, if they occured in-between our weather recording intervals... More about our weather records

Advertising

Douala weather history for previous 24 hours

 ConditionsComfort  
Time TempWeatherWind HumidityBarometerVisibility
11:00 AM
Nov 26
84 °FPartly sunny.No wind79%29.89 "HgN/A
10:00 AM82 °FPartly sunny.No wind84%29.92 "HgN/A
9:00 AM79 °FPartly sunny.No wind89%29.92 "HgN/A
8:00 AM77 °FPartly sunny.No wind100%29.92 "HgN/A
7:00 AM77 °FFog.2 mph100%29.89 "Hg2 mi
6:00 AM75 °FPassing clouds.No wind100%29.86 "Hg4 mi
5:00 AM77 °FPassing clouds.No wind94%29.86 "Hg4 mi
4:00 AM77 °FPassing clouds.No wind94%29.86 "Hg4 mi
3:00 AM77 °FPassing clouds.No wind94%29.86 "Hg4 mi
2:00 AM75 °FPassing clouds.No wind100%29.89 "HgN/A
1:00 AM75 °FPassing clouds.No wind100%29.86 "HgN/A
12:00 AM77 °FPassing clouds.No wind94%29.89 "HgN/A
11:00 PM
Nov 25
77 °FPassing clouds.No wind94%29.89 "HgN/A
10:00 PM77 °FPassing clouds.No wind94%29.89 "HgN/A
9:00 PM77 °FPassing clouds.No wind100%29.89 "HgN/A
8:00 PM77 °FPassing clouds.No wind100%29.86 "HgN/A
7:00 PM79 °FPartly cloudy.3 mph94%29.83 "HgN/A
6:00 PM79 °FThunderstorms. Partly sunny.5 mph94%29.83 "HgN/A
5:00 PM79 °FThunderstorms. Partly sunny.5 mph94%29.80 "Hg5 mi
4:00 PM79 °FThunderstorms. Broken clouds.3 mph94%29.83 "Hg5 mi
3:00 PM81 °FThunderstorms. Broken clouds.9 mph89%29.83 "Hg2 mi
2:00 PM84 °FThunderstorms. Partly sunny.7 mph84%29.83 "Hg5 mi
1:00 PM82 °FThunderstorms. Broken clouds.5 mph89%29.89 "HgN/A
12:00 PM84 °FThunderstorms. Broken clouds.7 mph79%29.89 "HgN/A
Weather by CustomWeather, © 2014

See weather overviewHow to use our weather pages